Skip Navigation Links
NOAA logo - Click to go to the NOAA homepage
NOAA's National Weather Service
Alaska Aviation Weather Unit
  NWS logo - Click to go to the NWS homepage
Left Navbar Graphic     00 AKDT = 08 GMT

   
NOAA is celebrating 200 years of science, service, and stewardship. Visit the NOAA 200th celebration Web site to learn more.
USA.gov is the U.S. Government's official Web portal to all Federal, state and local government Web resources and services.
Facebook
NWS on Facebook

Important Change Regarding the AAWU Web Presence

 

Over the last several months, the AAWU has been working to navigate its webpages to a nationally supported server. Security, as well as other needs, have necessitated the change.  We have been given an extension for the site changeover while we diligently work at addressing feedback received. As of July 14, 2017, aawu.arh.noaa.gov will be discontinued. The new AAWU web address is weather.gov/aawu. It is now live and will run in-parallel with the old site until it is discontinued on July 14, 2017. Please continue to send any feedback or questions regarding the new webpages to nws.ar.aawu.webauthors@noaa.gov.  Thank you for your patience during this time of transition.
AAWU Home :: Display TAF Add Bookmark
TAF PAOR 240540Z 2406/2506  VRB03KT P6SM FEW090 SCT200
     FM241500 VRB04KT P6SM OVC025
     FM242000 VRB03KT P6SM SCT035 OVC080=



METAR PAOR 240253Z AUTO 00000KT 10SM CLR 12/04 A2956= METAR PAOR 240353Z AUTO 00000KT 10SM CLR 07/05 A2955= METAR PAOR 240453Z AUTO 00000KT 10SM CLR 05/04 A2954= METAR PAOR 240553Z 00000KT 10SM FEW090 SCT140 04/04 A2954= METAR PAOR 240653Z 25003KT 10SM SCT190 03/03 A2954= METAR PAOR 240753Z 00000KT 10SM CLR 02/02 A2953=
 Alaska TAF Map

NOAA's National Weather Service
Alaska Aviation Weather Unit
6930 Sand Lake Road
Anchorage, AK 99502-1845
Disclaimer
Credits
Glossary
Privacy Policy
About Us
Career Opportunities
Contact AAWU Internet Services Site last modified: April, 17th 2012